Time,TemperatureF,DewpointF,PressureIn,WindDirection,WindDirectionDegrees,WindSpeedMPH,WindSpeedGustMPH,Humidity,HourlyPrecipIn,Conditions,Clouds,dailyrainin,SoftwareType,DateUTC
2013-01-02 00:12:00,49.7,49.0,29.93,WSW,244,0.0,0.0,98,0.00,,,0.00,weatherlink.com 1.10,2013-01-02 05:12:00,
2013-01-02 00:27:00,49.7,49.0,29.93,WSW,244,0.0,0.0,98,0.00,,,0.00,weatherlink.com 1.10,2013-01-02 05:27:00,
2013-01-02 00:42:00,49.6,49.0,29.92,WSW,244,0.0,0.0,98,0.01,,,0.01,weatherlink.com 1.10,2013-01-02 05:42:00,
2013-01-02 00:57:00,49.6,49.0,29.91,WSW,244,0.0,0.0,98,0.01,,,0.01,weatherlink.com 1.10,2013-01-02 05:57:00,
2013-01-02 01:12:00,49.5,49.0,29.91,WSW,244,0.0,0.0,98,0.01,,,0.01,weatherlink.com 1.10,2013-01-02 06:12:00,
2013-01-02 01:27:00,49.5,49.0,29.91,WSW,244,0.0,0.0,98,0.01,,,0.01,weatherlink.com 1.10,2013-01-02 06:27:00,
2013-01-02 01:42:00,49.5,49.0,29.92,WSW,244,0.0,0.0,98,0.00,,,0.01,weatherlink.com 1.10,2013-01-02 06:42:00,
2013-01-02 01:57:00,49.5,49.0,29.92,WSW,244,0.0,0.0,98,0.00,,,0.00,weatherlink.com 1.10,2013-01-02 06:57:00,
2013-01-02 02:12:00,49.5,49.0,29.93,WSW,244,0.0,0.0,98,0.00,,,0.00,weatherlink.com 1.10,2013-01-02 07:12:00,
2013-01-02 02:27:00,49.5,49.0,29.92,WSW,244,0.0,0.0,98,0.00,,,0.00,weatherlink.com 1.10,2013-01-02 07:27:00,
2013-01-02 02:42:00,49.5,49.0,29.94,WSW,244,0.0,0.0,98,0.00,,,0.00,weatherlink.com 1.10,2013-01-02 07:42:00,
2013-01-02 02:57:00,49.5,49.0,29.91,WSW,244,0.0,0.0,98,0.00,,,0.00,weatherlink.com 1.10,2013-01-02 07:57:00,
2013-01-02 03:12:00,49.5,49.0,29.87,ESE,117,0.0,3.0,98,0.00,,,0.00,weatherlink.com 1.10,2013-01-02 08:12:00,
2013-01-02 03:27:00,49.5,49.0,29.90,SSE,156,0.0,3.0,99,0.00,,,0.00,weatherlink.com 1.10,2013-01-02 08:27:00,
2013-01-02 03:42:00,49.6,49.0,29.91,SSE,156,0.0,1.0,99,0.00,,,0.00,weatherlink.com 1.10,2013-01-02 08:42:00,
2013-01-02 03:57:00,49.6,49.0,29.92,SSE,156,0.0,1.0,99,0.00,,,0.00,weatherlink.com 1.10,2013-01-02 08:57:00,
2013-01-02 04:13:00,49.6,49.0,29.93,SSE,156,0.0,0.0,99,0.00,,,0.00,weatherlink.com 1.10,2013-01-02 09:13:00,
2013-01-02 04:28:00,49.5,49.0,29.92,SSE,156,0.0,0.0,99,0.00,,,0.00,weatherlink.com 1.10,2013-01-02 09:28:00,
2013-01-02 04:43:00,49.5,49.0,29.93,SSE,156,1.0,1.0,99,0.00,,,0.00,weatherlink.com 1.10,2013-01-02 09:43:00,
2013-01-02 04:58:00,49.6,49.0,29.93,SSE,156,0.0,1.0,99,0.00,,,0.00,weatherlink.com 1.10,2013-01-02 09:58:00,
2013-01-02 05:13:00,49.6,49.0,29.94,SSE,156,0.0,0.0,99,0.00,,,0.00,weatherlink.com 1.10,2013-01-02 10:13:00,
2013-01-02 05:28:00,49.6,49.0,29.94,SSE,156,0.0,1.0,99,0.00,,,0.00,weatherlink.com 1.10,2013-01-02 10:28:00,
2013-01-02 05:43:00,49.6,49.0,29.94,SSE,156,0.0,1.0,99,0.00,,,0.00,weatherlink.com 1.10,2013-01-02 10:43:00,
2013-01-02 05:58:00,49.5,49.0,29.94,SSE,156,0.0,1.0,99,0.00,,,0.00,weatherlink.com 1.10,2013-01-02 10:58:00,
2013-01-02 06:13:00,49.5,49.0,29.95,South,184,0.0,0.0,99,0.00,,,0.00,weatherlink.com 1.10,2013-01-02 11:13:00,
2013-01-02 06:28:00,49.5,49.0,29.96,South,184,0.0,0.0,98,0.00,,,0.00,weatherlink.com 1.10,2013-01-02 11:28:00,
2013-01-02 06:43:00,49.5,49.0,29.95,South,184,0.0,2.0,98,0.00,,,0.00,weatherlink.com 1.10,2013-01-02 11:43:00,
2013-01-02 06:58:00,49.5,49.0,29.96,South,184,0.0,0.0,99,0.00,,,0.00,weatherlink.com 1.10,2013-01-02 11:58:00,
2013-01-02 07:13:00,49.4,49.0,29.96,South,184,1.0,1.0,98,0.00,,,0.00,weatherlink.com 1.10,2013-01-02 12:13:00,
2013-01-02 07:28:00,49.4,49.0,29.98,NE,53,0.0,2.0,98,0.00,,,0.00,weatherlink.com 1.10,2013-01-02 12:28:00,
2013-01-02 07:43:00,49.5,49.0,29.98,NE,36,0.0,1.0,99,0.00,,,0.00,weatherlink.com 1.10,2013-01-02 12:43:00,
2013-01-02 07:58:00,49.5,49.0,29.99,NE,36,0.0,1.0,99,0.00,,,0.00,weatherlink.com 1.10,2013-01-02 12:58:00,
2013-01-02 08:13:00,49.5,49.0,30.00,NNE,17,3.0,3.0,99,0.00,,,0.00,weatherlink.com 1.10,2013-01-02 13:13:00,
2013-01-02 08:28:00,49.6,49.0,29.99,ESE,104,0.0,3.0,99,0.00,,,0.00,weatherlink.com 1.10,2013-01-02 13:28:00,
2013-01-02 08:43:00,49.4,49.0,30.01,NE,40,0.0,3.0,98,0.00,,,0.00,weatherlink.com 1.10,2013-01-02 13:43:00,
2013-01-02 08:58:00,49.4,49.0,30.01,NE,51,0.0,2.0,98,0.00,,,0.00,weatherlink.com 1.10,2013-01-02 13:58:00,
2013-01-02 09:13:00,49.4,49.0,30.02,ENE,65,0.0,4.0,98,0.00,,,0.00,weatherlink.com 1.10,2013-01-02 14:13:00,
2013-01-02 09:28:00,49.3,49.0,30.03,NE,40,1.0,3.0,98,0.00,,,0.00,weatherlink.com 1.10,2013-01-02 14:28:00,
2013-01-02 09:43:00,49.0,49.0,30.04,ENE,57,0.0,2.0,98,0.00,,,0.00,weatherlink.com 1.10,2013-01-02 14:43:00,
2013-01-02 09:58:00,49.0,49.0,30.04,NE,52,1.0,2.0,98,0.00,,,0.00,weatherlink.com 1.10,2013-01-02 14:58:00,
2013-01-02 10:13:00,48.8,48.0,30.06,ESE,106,0.0,4.0,98,0.00,,,0.00,weatherlink.com 1.10,2013-01-02 15:13:00,
2013-01-02 10:28:00,48.7,48.0,30.05,East,96,0.0,5.0,98,0.00,,,0.00,weatherlink.com 1.10,2013-01-02 15:28:00,
2013-01-02 10:43:00,48.2,47.0,30.06,NE,51,2.0,7.0,97,0.00,,,0.00,weatherlink.com 1.10,2013-01-02 15:43:00,
2013-01-02 10:58:00,48.1,47.0,30.08,East,94,0.0,5.0,96,0.00,,,0.00,weatherlink.com 1.10,2013-01-02 15:58:00,
2013-01-02 11:13:00,47.7,46.0,30.07,ESE,118,2.0,5.0,95,0.00,,,0.00,weatherlink.com 1.10,2013-01-02 16:13:00,
2013-01-02 11:28:00,47.2,46.0,30.07,ESE,113,1.0,4.0,95,0.00,,,0.00,weatherlink.com 1.10,2013-01-02 16:28:00,
2013-01-02 11:43:00,47.6,46.0,30.05,NE,37,0.0,2.0,94,0.00,,,0.00,weatherlink.com 1.10,2013-01-02 16:43:00,
2013-01-02 11:58:00,47.6,45.0,30.05,SE,134,3.0,4.0,92,0.00,,,0.00,weatherlink.com 1.10,2013-01-02 16:58:00,
2013-01-02 12:13:00,46.8,45.0,30.05,SSE,153,0.0,4.0,92,0.00,,,0.00,weatherlink.com 1.10,2013-01-02 17:13:00,
2013-01-02 12:28:00,46.7,45.0,30.06,ESE,123,0.0,4.0,92,0.00,,,0.00,weatherlink.com 1.10,2013-01-02 17:28:00,
2013-01-02 12:43:00,46.9,45.0,30.05,South,187,1.0,3.0,91,0.00,,,0.00,weatherlink.com 1.10,2013-01-02 17:43:00,
2013-01-02 12:58:00,46.8,44.0,30.05,ESE,121,1.0,5.0,90,0.00,,,0.00,weatherlink.com 1.10,2013-01-02 17:58:00,
2013-01-02 13:13:00,46.8,44.0,30.04,NE,51,1.0,3.0,91,0.00,,,0.00,weatherlink.com 1.10,2013-01-02 18:13:00,
2013-01-02 13:28:00,47.0,44.0,30.04,SE,143,3.0,5.0,90,0.00,,,0.00,weatherlink.com 1.10,2013-01-02 18:28:00,
2013-01-02 13:43:00,47.2,44.0,30.05,East,79,0.0,3.0,88,0.00,,,0.00,weatherlink.com 1.10,2013-01-02 18:43:00,
2013-01-02 13:58:00,47.5,44.0,30.03,ESE,120,1.0,3.0,87,0.00,,,0.00,weatherlink.com 1.10,2013-01-02 18:58:00,
2013-01-02 14:13:00,47.8,44.0,30.04,SE,136,1.0,4.0,86,0.00,,,0.00,weatherlink.com 1.10,2013-01-02 19:13:00,
2013-01-02 14:28:00,47.9,44.0,30.04,NNE,19,2.0,3.0,85,0.00,,,0.00,weatherlink.com 1.10,2013-01-02 19:28:00,
2013-01-02 14:43:00,47.6,43.0,30.05,North,355,0.0,4.0,85,0.00,,,0.00,weatherlink.com 1.10,2013-01-02 19:43:00,
2013-01-02 14:59:00,48.0,44.0,30.06,East,84,1.0,4.0,85,0.00,,,0.00,weatherlink.com 1.10,2013-01-02 19:59:00,
2013-01-02 15:14:00,48.3,44.0,30.05,ESE,108,2.0,3.0,84,0.00,,,0.00,weatherlink.com 1.10,2013-01-02 20:14:00,
2013-01-02 15:29:00,48.3,44.0,30.05,SE,130,3.0,3.0,85,0.00,,,0.00,weatherlink.com 1.10,2013-01-02 20:29:00,
2013-01-02 15:44:00,47.8,44.0,30.06,East,84,0.0,3.0,86,0.00,,,0.00,weatherlink.com 1.10,2013-01-02 20:44:00,
2013-01-02 15:59:00,47.7,43.0,30.06,NNE,25,0.0,1.0,85,0.00,,,0.00,weatherlink.com 1.10,2013-01-02 20:59:00,
2013-01-02 16:14:00,47.5,43.0,30.06,East,101,1.0,4.0,85,0.00,,,0.00,weatherlink.com 1.10,2013-01-02 21:14:00,
2013-01-02 16:29:00,47.3,43.0,30.06,ESE,107,1.0,3.0,86,0.00,,,0.00,weatherlink.com 1.10,2013-01-02 21:29:00,
2013-01-02 16:44:00,47.0,43.0,30.07,ESE,109,0.0,2.0,85,0.00,,,0.00,weatherlink.com 1.10,2013-01-02 21:44:00,
2013-01-02 16:59:00,46.8,43.0,30.06,ESE,106,0.0,3.0,86,0.00,,,0.00,weatherlink.com 1.10,2013-01-02 21:59:00,
2013-01-02 17:14:00,46.7,43.0,30.08,ENE,63,1.0,1.0,86,0.00,,,0.00,weatherlink.com 1.10,2013-01-02 22:14:00,
2013-01-02 17:29:00,46.5,43.0,30.08,NE,42,0.0,1.0,87,0.00,,,0.00,weatherlink.com 1.10,2013-01-02 22:29:00,
2013-01-02 17:44:00,46.4,43.0,30.09,NE,43,0.0,1.0,86,0.00,,,0.00,weatherlink.com 1.10,2013-01-02 22:44:00,
2013-01-02 17:59:00,46.3,43.0,30.09,NE,43,0.0,1.0,87,0.00,,,0.00,weatherlink.com 1.10,2013-01-02 22:59:00,
2013-01-02 18:14:00,46.2,43.0,30.09,NE,43,0.0,1.0,87,0.00,,,0.00,weatherlink.com 1.10,2013-01-02 23:14:00,
2013-01-02 18:29:00,46.1,43.0,30.10,NE,43,0.0,0.0,87,0.00,,,0.00,weatherlink.com 1.10,2013-01-02 23:29:00,
2013-01-02 18:44:00,46.1,43.0,30.11,NE,43,0.0,0.0,88,0.00,,,0.00,weatherlink.com 1.10,2013-01-02 23:44:00,
2013-01-02 18:59:00,46.0,43.0,30.12,NE,43,0.0,1.0,88,0.00,,,0.00,weatherlink.com 1.10,2013-01-02 23:59:00,
2013-01-02 19:14:00,45.9,43.0,30.11,NE,43,0.0,1.0,89,0.00,,,0.00,weatherlink.com 1.10,2013-01-03 00:14:00,
2013-01-02 19:29:00,45.9,43.0,30.10,NE,44,0.0,2.0,88,0.00,,,0.00,weatherlink.com 1.10,2013-01-03 00:29:00,
2013-01-02 19:44:00,45.8,42.0,30.11,NE,44,0.0,2.0,87,0.00,,,0.00,weatherlink.com 1.10,2013-01-03 00:44:00,
2013-01-02 19:59:00,45.9,43.0,30.10,NE,44,0.0,2.0,88,0.00,,,0.00,weatherlink.com 1.10,2013-01-03 00:59:00,
2013-01-02 20:14:00,45.7,42.0,30.12,NE,44,0.0,1.0,88,0.00,,,0.00,weatherlink.com 1.10,2013-01-03 01:14:00,
2013-01-02 20:29:00,45.8,43.0,30.13,East,90,0.0,1.0,88,0.00,,,0.00,weatherlink.com 1.10,2013-01-03 01:29:00,
2013-01-02 20:44:00,45.7,42.0,30.11,East,90,0.0,1.0,88,0.00,,,0.00,weatherlink.com 1.10,2013-01-03 01:44:00,
2013-01-02 20:59:00,45.6,42.0,30.12,East,90,0.0,1.0,88,0.00,,,0.00,weatherlink.com 1.10,2013-01-03 01:59:00,
2013-01-02 21:14:00,45.6,42.0,30.12,East,90,0.0,2.0,88,0.00,,,0.00,weatherlink.com 1.10,2013-01-03 02:14:00,
2013-01-02 21:29:00,45.6,42.0,30.14,East,90,0.0,0.0,88,0.00,,,0.00,weatherlink.com 1.10,2013-01-03 02:29:00,
2013-01-02 21:44:00,45.5,42.0,30.14,East,90,0.0,2.0,88,0.00,,,0.00,weatherlink.com 1.10,2013-01-03 02:44:00,
2013-01-02 21:59:00,45.5,42.0,30.12,East,90,0.0,2.0,88,0.00,,,0.00,weatherlink.com 1.10,2013-01-03 02:59:00,
2013-01-02 22:14:00,45.4,42.0,30.14,East,89,0.0,1.0,88,0.00,,,0.00,weatherlink.com 1.10,2013-01-03 03:14:00,
2013-01-02 22:29:00,45.4,42.0,30.14,East,89,0.0,2.0,88,0.00,,,0.00,weatherlink.com 1.10,2013-01-03 03:29:00,
2013-01-02 22:59:00,45.4,42.0,30.15,East,89,0.0,2.0,88,0.00,,,0.00,weatherlink.com 1.10,2013-01-03 03:59:00,
2013-01-02 23:14:00,45.2,42.0,30.15,East,89,0.0,2.0,88,0.00,,,0.00,weatherlink.com 1.10,2013-01-03 04:14:00,
2013-01-02 23:29:00,45.3,42.0,30.14,East,89,1.0,2.0,89,0.00,,,0.00,weatherlink.com 1.10,2013-01-03 04:29:00,
2013-01-02 23:44:00,45.2,42.0,30.14,SE,128,1.0,3.0,88,0.00,,,0.00,weatherlink.com 1.10,2013-01-03 04:44:00,
2013-01-02 23:59:00,45.1,42.0,30.13,ESE,123,0.0,3.0,87,0.00,,,0.00,weatherlink.com 1.10,2013-01-03 04:59:00,